Location: ????????
(48.4751°N, 37.6926°E)
Time: 03:14:10
(UTC+00:00)

CZ-2C R/B - Pass Details

Date: 20 January 2021
Orbit: 704 x 908 km, 98.1° (Epoch: 24 February)

Event Time Altitude Azimuth Distance (km) Brightness Sun altitude
Rises 14:46:50 0° 136° (SE) 3,291 6.1 -6.4°
Reaches altitude 10° 14:49:17 10° 127° (SE) 2,397 5.3 -6.8°
Maximum altitude 14:54:03 35° 64° (ENE) 1,347 3.8 -7.5°
Drops below altitude 10° 14:59:03 10° 1° (N) 2,526 5.5 -8.3°
Sets 15:01:41 0° 353° (N) 3,493 6.3 -8.7°
